Location: Unspecified
(0.0000°N, 0.0000°E)
Time: 09:54:42
(UTC+00:00)

XW-2A - Visible Passes

Search period start: 18 January 2018 00:00
Search period end: 28 January 2018 00:00
Orbit: 437 x 455 km, 97.4° (Epoch: 18 January)

Date Brightness Start Highest point End Pass type
(mag) Time Alt. Az. Time Alt. Az. Time Alt. Az.
18 Jan ? 19:27:42 10° SSE 19:31:06 73° E 19:32:21 36° N visible
19 Jan ? 18:52:55 10° ESE 18:55:09 16° E 18:56:01 15° ENE visible
19 Jan ? 20:26:42 10° WSW 20:27:33 11° WSW 20:28:23 10° W visible
20 Jan ? 19:48:20 10° S 19:51:36 44° W 19:53:14 25° NW visible
21 Jan ? 19:12:29 10° SSE 19:15:39 36° E 19:16:51 26° NE visible
22 Jan ? 20:09:34 10° SSW 20:12:06 19° WSW 20:14:04 13° WNW visible
23 Jan ? 19:32:43 10° S 19:36:09 90° NE 19:37:42 30° N visible
24 Jan ? 18:57:39 10° SE 19:00:10 19° E 19:01:19 17° NE visible
25 Jan ? 19:53:26 10° S 19:56:37 36° W 19:58:30 20° NW visible
26 Jan ? 19:17:22 10° SSE 19:20:39 43° E 19:22:07 26° NNE visible
27 Jan ? 18:43:53 10° E 18:44:41 11° ENE 18:45:26 10° ENE visible
27 Jan ? 20:14:50 10° SW 20:17:04 17° WSW 20:19:17 10° WNW visible
